Location: Niedergestelen
(46.3129°N, 7.7822°E)
Time: 08:25:28
(UTC+00:00)

METEOR 2-8 DEB - Visible Passes

Search period start: 21 June 2021 00:00
Search period end: 01 July 2021 00:00
Orbit: 839 x 872 km, 82.5° (Epoch: 16 June)

Date Brightness Start Highest point End Pass type
(mag) Time Alt. Az. Time Alt. Az. Time Alt. Az.
21 Jun ? 01:36:12 21° SW 01:39:37 45° WNW 01:44:58 10° N visible
21 Jun ? 23:43:46 17° SE 23:46:33 25° E 23:51:01 10° NNE visible
22 Jun ? 01:25:53 23° SW 01:29:05 48° WNW 01:34:30 10° N visible
22 Jun ? 23:33:26 17° ESE 23:36:05 24° E 23:40:26 10° NNE visible
23 Jun ? 01:15:34 25° SW 01:18:36 51° WNW 01:24:02 10° N visible
23 Jun ? 23:23:06 16° ESE 23:25:39 22° E 23:29:51 10° NE visible
24 Jun ? 01:05:13 27° SW 01:08:06 54° WNW 01:13:34 10° N visible
24 Jun ? 23:12:45 16° ESE 23:15:11 21° E 23:19:15 10° NE visible
25 Jun ? 00:54:52 29° SW 00:57:36 58° WNW 01:03:05 10° N visible
25 Jun ? 23:02:23 15° ESE 23:04:45 20° E 23:08:39 10° NE visible
26 Jun ? 00:44:30 31° SSW 00:47:05 61° WNW 00:52:37 10° N visible
26 Jun ? 22:52:01 15° ESE 22:54:18 19° E 22:58:02 10° NE visible
27 Jun ? 00:34:08 33° SSW 00:36:35 65° WNW 00:42:08 10° N visible
27 Jun ? 02:19:57 10° WNW 02:20:39 10° WNW 02:21:21 10° NW visible
27 Jun ? 22:41:38 14° ESE 22:43:51 18° E 22:47:24 10° NE visible
28 Jun ? 00:23:44 35° SSW 00:26:05 69° W 00:31:39 10° N visible
28 Jun ? 02:08:38 10° WNW 02:10:05 11° WNW 02:11:31 10° NW visible
28 Jun ? 22:31:14 13° ESE 22:33:25 16° E 22:36:46 10° NE visible
29 Jun ? 00:13:20 37° SSW 00:15:35 74° W 00:21:11 10° N visible
29 Jun ? 01:57:37 10° W 01:59:31 12° WNW 02:01:26 10° NW visible
29 Jun ? 22:20:49 13° ESE 22:22:58 15° E 22:26:06 10° NE visible
30 Jun ? 00:02:56 39° SSW 00:05:05 78° W 00:10:41 10° N visible
30 Jun ? 01:46:42 10° W 01:48:58 12° WNW 01:51:14 10° NW visible
30 Jun ? 22:10:23 12° ESE 22:12:31 14° E 22:15:24 10° NE visible
